www.pogodaiklimat.ru

Погода и климат >> Архив погоды >> Россия >> Ненецкий АО >> Индига


АРХИВ ПОГОДЫ в Индиге

Время (UTC), дата Ветер
(напр.,м/с)
 
Видим.   Явления Облачность Т
(С)
Тd
(С)
f
(%)
Тe
(С)
Тes
(С)
Комфортность P
(гПа)
Po
(гПа)
Тmin
(С)
Tmax
(С)
R
(мм)
R24
(мм)
S
(см)
06 12.02 ЮЗ 9-11
{16}
10 км позёмок 10/10 300 м
[St]
-2.9 -3.3 97 -12 -12 1002.3 1001.8 -3.0
09 12.02 Ю 9-11
{12}
10 км позёмок 9/8 600 м
[Sc Ac trans]
-2.9 -3.7 94 -12 -12 1001.4 1000.9
12 12.02 ЮЗ 12-16
{16}
2000 м метель 9/8 600 м
[Sc Ac trans Ci sp]
-1.9 -2.1 99 -12 -12 1000.0 999.5
15 12.02 ЮЗ 14-18
{18}
500 м слаб. ливневой снег {метель} 9/8 300 м
[Cb cap Ac trans]
-1.1 -1.5 97 -11 -11 1000.0 999.5 -1.1 0.4
18 12.02 ЮЗ 14-17
{19}
500 м слаб. ливневой снег {метель} 9/9 300 м
[Cb cap]
-1.2 -1.4 99 -11 -11 999.2 998.7
21 12.02 ЮЗ 13-16
{18}
500 м слаб. ливневой снег {метель} 10/10 300 м
[Cb cap]
-1.5 -1.7 99 -11 -11 998.7 998.2
00 13.02 ЮЗ 13-16
{18}
10 км позёмок {ливн. осадки} 10/10 300 м
[St]
-1.9 -2.3 97 -12 -12 997.8 997.3
03 13.02 ЮЗ 10-13
{16}
500 м слаб. ливневой снег {метель} 10/10 300 м
[Cb cap]
-2.2 -2.2 100 -11 -11 996.9 996.4 -2.2 4 32
06 13.02 ЮЗ 9-10
{13}
2000 м слаб. ливневой снег {метель} 10/10 300 м
[Cb cap]
-2.1 -2.1 100 -11 -11 996.5 996.0 -2.3
09 13.02 З 6
{11}
10 км позёмок {ливн. осадки} 9/9 300 м
[Cb cap]
-2.5 -2.8 98 -10 -10 996.9 996.4
12 13.02 З 9-11
{12}
4000 м позёмок {ливн. осадки} 10/10 300 м
[St]
-4.3 -4.9 96 -14 -14 998.1 997.6
15 13.02 З 7
{11}
10 км позёмок 8/8 300 м
[St]
-4.6 -5.2 96 -13 -13 999.0 998.5 -1.9 1
18 13.02 З 5
{10}
10 км {метель} 10/10 600 м
[Sc]
-4.6 -5.5 93 -12 -12 1000.2 999.7
21 13.02 СВ 9-11
{11}
10 км позёмок 10/10 300 м
[St]
-5.1 -5.8 95 -15 -15 1001.9 1001.4
00 14.02 СВ 7
{13}
20 км {метель} 6/4 600 м
[Sc Ac trans]
-6.8 -8.8 86 -15 -15 1004.5 1004.0
03 14.02 СВ 6
{11}
20 км ясно -7.7 -9.5 87 -16 -16 1006.8 1006.3 -7.7 32
06 14.02 С 2 20 км 9/9 600 м
[Sc]
-9.3 -10.5 91 -14 -14 1009.2 1008.7 -10.7
09 14.02 С 2 20 км 3/0
[Ac trans]
-9.1 -12.1 79 -14 -13 1010.4 1009.9
12 14.02 З 4 20 км ясно -8.8 -9.9 92 -16 -16 1010.9 1010.4
15 14.02 З 5 20 км 3/0
[Ci fib]
-10.4 -11.0 95 -18 -18 1010.7 1010.2 -6.4
18 14.02 ЮЗ 8 10 км 3/0
[Ci fib]
-11.8 -13.3 89 -22 -22 1009.1 1008.6
21 14.02 Ю 5 20 км 3/0
[Ci fib]
-11.4 -12.7 90 -19 -19 1005.9 1005.4
00 15.02 Ю 11-13
{13}
10 км позёмок 8/0
[Cs]
-9.8 -11.5 87 -21 -21 1001.7 1001.2
03 15.02 Ю 12-18
{18}
10 км сильный позёмок 9/0
[Ac trans Cs]
-10.3 -12.3 85 -22 -22 996.6 996.1 -13.1 31
06 15.02 Ю 12-15
{18}
10 км позёмок 9/0
[Ac As]
-11.4 -12.7 90 -23 -23 993.6 993.1
09 15.02 Ю 11-15
{17}
10 км сильный позёмок 9/0
[Ac As]
-10.2 -11.5 90 -21 -21 991.0 990.5
12 15.02 Ю 13-17
{17}
1000 м слаб. снег {метель} 10/0
[As op]
-8.8 -9.9 92 -20 -20 989.3 988.8
15 15.02 Ю 9-12
{17}
1000 м снег {метель} 10/10 300 м
[Frnb Ns]
-7.6 -8.4 94 -18 -18 988.4 987.9 -7.6 0.9
18 15.02 Ю 9-12
{13}
1000 м снег {метель} 10/10 300 м
[Frnb Ns]
-6.7 -7.7 93 -16 -16 987.9 987.4
21 15.02 ЮЗ 10-13
{13}
1000 м слаб. снег {метель} 10/10 300 м
[Frnb Ns]
-6.5 -7.3 94 -17 -17 988.1 987.6
00 16.02 ЮЗ 9-11
{14}
10 км позёмок {снег} 10/10 300 м
[St]
-5.2 -5.5 98 -15 -15 988.6 988.1
03 16.02 З 6
{12}
10 км {метель} 8/6 600 м
[Sc Ac trans]
-3.8 -4.3 96 -12 -12 991.2 990.7 -7.7 3 27
06 16.02 СЗ 7 10 км {метель} 9/8 600 м
[Sc Ac trans]
-2.0 -2.9 94 -10 -10 992.0 992.1
09 16.02 З 7 10 км 10/10 600 м
[Sc]
-2.0 -2.9 94 -10 -10 994.2 993.7
12 16.02 З 7
{10}
10 км 10/10 300 м
[St]
-2.5 -3.1 96 -10 -10 994.0 993.5
15 16.02 З 7
{11}
10 км позёмок {ливн. осадки} 10/10 300 м
[Cb cap]
-4.0 -4.5 96 -12 -12 993.4 992.9 -1.9 0.3
18 16.02 ЮЗ 6 10 км {ливн. осадки, метель} 9/9 300 м
[Cb cap]
-6.2 -6.7 96 -14 -14 991.1 990.6
21 16.02 Ю 6 10 км 9/0
[As trans]
-6.2 -6.8 96 -14 -14 988.0 987.5
00 17.02 ЮВ 11-14
{14}
1000 м сильная метель 10/0
[Ac As]
-6.0 -6.7 95 -16 -16 982.1 981.6
03 17.02 ЮВ 10-15
{15}
500 м слаб. снег {метель} 10/10 300 м
[Frnb Ns]
-5.9 -6.3 97 -16 -16 979.1 978.6 -6.9 0.6 33
06 17.02 ЮВ 10-12
{14}
500 м снег {метель} 10/10 300 м
[Frnb Ns]
-5.8 -6.3 96 -16 -16 977.4 976.9
09 17.02 ЮВ 9-12
{13}
1000 м слаб. снег {метель} 10/10 300 м
[Frnb Ns]
-5.7 -6.2 96 -15 -15 977.8 977.3
12 17.02 В 7 2000 м снег {метель} 10/10 300 м
[Frnb Ns]
-5.8 -6.2 97 -14 -14 979.7 979.2
15 17.02 СВ 9-12
{12}
500 м снег {метель} 10/10 300 м
[Frnb Ns]
-6.3 -6.8 96 -16 -16 983.5 983.0 -5.6 5
18 17.02 СВ 18-23
{23}
50 м сильная метель ?/? -7.4 -8.0 95 -20 -20 988.3 987.8
21 17.02 С 14-18
{22}
500 м сильная метель 8/5 300 м
[Cb cap Ac cuf]
-8.3 -9.2 93 -20 -20 993.7 993.2
00 18.02 С 15-19
{22}
500 м сильная метель 4/4 300 м
[Cb cap]
-8.9 -10.3 90 -21 -21 996.8 996.3 3
03 18.02 С 13-17
{20}
500 м сильная метель 8/8 300 м
[Cb cap]
-9.8 -12.4 81 -22 -22 999.8 999.3 -10.0 3 30
06 18.02 С 9-12
{18}
20 км позёмок 3/3 300 м
[Cb cap]
-10.2 -15.5 65 -20 -20 1001.9 1001.4 -10.7
09 18.02 СЗ 7
{13}
2000 м слаб. ливневой снег {метель} 8/8 300 м
[Cb cap]
-9.9 -12.1 84 -19 -19 1003.8 1003.3
12 18.02 З 3
{10}
20 км {ливн. осадки, метель} 8/5 300 м
[Cb cap Ac trans]
-10.0 -13.8 74 -16 -16 1005.1 1004.6
15 18.02 З 8-10
{11}
2000 м слаб. ливневой снег {метель} 9/9 300 м
[Cb cap]
-10.2 -11.5 90 -20 -20 1005.7 1005.2 -9.2 2
18 18.02 ЮЗ 8
{11}
10 км позёмок {ливн. осадки} 8/3 300 м
[Cb cap Ac trans Cs]
-12.3 -13.2 93 -22 -22 1004.5 1004.0
21 18.02 ЮЗ 10-12
{12}
2000 м слаб. ливневой снег {метель} 8/8 300 м
[Cb cap]
-11.5 -12.4 93 -22 -22 1002.2 1001.7
00 19.02 ЮЗ 10-12
{12}
10 км позёмок {ливн. осадки} 8/3 300 м
[Cb cap Ac cuf Cs]
-11.9 -13.0 92 -23 -23 1000.0 999.5

 

Местоположение метеостанции Индига (Ненецкий АО, Россия): широта 67.68 долгота 48.68 высота над уровнем моря 4 м.

В архиве по умолчанию представлена погода в Индиге за последнюю неделю. Архивные данные за месяц целиком и за предыдущие месяцы, начиная с января 2011 года, Вы можете получить, выбрав интересующий диапазон дат из раскрывающегося списка и нажав кнопку "Ввод!".


*Определитесь, кто Вы:
робот инопланетянин человек

Внимание! Время в таблицах - всемирное. Для получения местного времени необходимо прибавить поправку, которая равна 3 ч.

Смотрите также архив погоды в соседних городах и на ближайших метеорологических станциях:

Погода на Мысе Микулкин (Ненецкий АО, Россия) (86 км)
Погода в Нижней Пеше (Ненецкий АО, Россия) (111 км)
Погода в Коткино (Ненецкий АО, Россия) (127 км)
Погода в Бугрино (Ненецкий АО, Россия) (127 км)
Погода в Сенгейском Шаре (Ненецкий АО, Россия) (139 км)
Погода в Нарьян-Маре (Ненецкий АО, Россия) (184 км)
Погода в Шойне (Ненецкий АО, Россия) (191 км)
Погода на Колгуевом Острове (Ненецкий АО, Россия) (206 км)
Погода в Неси (Ненецкий АО, Россия) (210 км)
Погода в Окуневом Носу (Коми, Россия) (233 км)

Пояснения к столбцам:

Ветер - указаны скорость ветра в м/с - средняя за 10 мин, порывы в срок и между сроками (в фигурных скобках) и направление, откуда дует ветер: С - северный, СВ - северо-восточный, В - восточный, ЮВ - юго-восточный, Ю - южный, ЮЗ - юго-западный, З - западный, СЗ - северо-западный.
Видимость - горизонтальная дальность видимости в метрах или километрах. При видимости от 1 до 10 км при отсутствии осадков обычно наблюдается дымка, при ухудшении видимости до 1 км и менее - туман. В сухую погоду видимость может ухудшаться дымом, пылью или мглою.
Явления - указаны атмосферные явления, наблюдавшиеся в срок или в последний час перед сроком; фигурными скобками обозначены явления, наблюдавшиеся между сроками (за 1-3 часа до срока); квадратными скобками обозначены град или гололедные отложения с указанием их диаметра в мм.
Облачность - указаны через наклонную черту общая и нижняя облачность в баллах и высота нижней границы облаков в метрах; квадратными скобками обозначены формы облаков: Ci - перистые, Cs - перисто-слоистые, Cc - перисто-кучевые, Ac - высококучевые, As - высокослоистые, Sc - слоисто-кучевые, Ns - слоисто-дождевые, Cu - кучевые, Cb - кучево-дождевые. Подробнее классификацию облаков см. в Атласе облаков (PDF).
T - Температура воздуха - температура, измеренная на высоте 2 м над землей.
Td - Температура точки росы - температура, при понижении до которой содержащийся в воздухе водяной пар достигнет насыщения.
f - Относительная влажность воздуха - влажноcть воздуха, измеренная на высоте 2 м над землей.
Te - Эффективная температура - температура, которую ощущает одетый по сезону человек в тени. Характеристика душности погоды. При расчете учитывается влияние влажности воздуха и скорости ветра на теплоощущения человека.
Tes - Эффективная температура на солнце - температура, которую ощущает человек, с поправкой на солнечный нагрев. Характеристика знойности погоды. Зависит от высоты солнца над горизонтом, облачности и скорости ветра. Ночью, в пасмурную погоду, а также при ветре 12 м/с и более поправка равна нулю.
P - Атмосферное давление - приведенное к уровню моря атмосферное давление.
Po - Атмосферное давление - измеренное на уровне метеостанции атмосферное давление.
Tmin - Минимальная температура - минимум температуры воздуха на высоте 2 м над землей.
Tmax - Максимальная температура - максимум температуры воздуха на высоте 2 м над землей.
R - Количество осадков - Количество выпавших осадков за период времени, мм. При наведении курсора мыши на число - период времени, за который выпало указанное количество осадков.
R24 - Количество осадков - Количество выпавших осадков за 24 часа, мм.
S - Снежный покров - Высота снежного покрова, см. При наведении курсора мыши на число - состояние снежного покрова и степень покрытия местности в баллах.